Starlink 11272

operational
NORAD ID: 60723 Int'l Des: 2024-152 Owner: SPXS Country: US Constellation: starlink
LEOCIRCULAR

About Starlink 11272

Description loading...

Live Position

Loading 3D Globe...

Upcoming Passes

Altitude History

Altitude vs Time

uPlot chart will show altitude changes over time

Two-Line Element Set

1 60723U 24152D 25306.47710300 .00002906 00000-0 28845-4 0 9998
2 60723 53.1577 23.4632 0001210 82.2983 277.8172 15.69700313 68850
Epoch: Nov 2, 2025 • Age: 8 hours

Current Status

Altitude 359.8 km
Velocity 7.70 km/s
Sub-Earth Point 16.08°N, 149.51°W
Launch Date Aug 28, 2024
Age 1.1 years
Type internet

Technical Details

Classification Payload
Mass 960.00 kg
Dry Mass 910.00 kg
Total Mass 960.00 kg
Length 0.30 m
Diameter 4.10 m
Span 29.00 m
Shape Box + pan
Manufacturer SPXS
Bus Type Starlink V2MD
Phase Status In Orbit
Owner/State SPXS/US

Large Constellations

Loading constellations...